Weather History for Punta Gorda, FL

Change the Weather History Date:

Friday, November 16, 2012

  Actual Average Record
Temperature  
Mean Temperature 64 °F -  
Max Temperature 68 °F 78 °F 86 °F (1998)
Min Temperature 60 °F 57 °F 44 °F (2007)
Growing Degree Days 14 (Base 50)    
Moisture  
Dew Point 59 °F    
Average Humidity 83    
Maximum Humidity 94    
Minimum Humidity 68    
Precipitation  
Precipitation 0.00 in - - ()
Sea Level Pressure  
Sea Level Pressure 30.14 in    
Wind  
Wind Speed 8 mph (NNE)    
Max Wind Speed 12 mph    
Max Gust Speed -    
Visibility 9 miles    
Events      
Averages and records for this station are not official NWS values.
T = Trace of Precipitation, MM = Missing Value Source: NWS Daily Summary

Daily Weather History Graph

Daily Weather History Graph

Search for Another Location

Airport:

Trip Planner

Search our weather history database for the weather conditions in past years. The results will help you decide how hot, cold, wet, or windy it might be!

Date:

Astronomy

Nov. 16, 2012 Rise Set
Actual Time 6:48 AM EST 5:36 PM EST
Civil Twilight 6:24 AM EST 6:01 PM EST
Nautical Twilight 5:56 AM EST 6:29 PM EST
Astronomical Twilight 5:28 AM EST 6:57 PM EST
Moon 9:37 AM EST (11/16) 8:38 PM EST (11/16)
Length of Visible Light 11h 36m
Length of Day
10h 47m
Waxing Crescent, 11% of the Moon is Illuminated
Nov 16
Waxing Crescent
Nov 20
First Quarter
Nov 28
Full
Dec 6
Last Quarter
Dec 13
New

Hourly Weather History & Observations

Time (EST) Temp. Dew Point Humidity Pressure Visibility Wind Dir Wind Speed Gust Speed Precip Events Conditions
12:28 AM 64.4 °F 62.6 °F 94% 30.14 in 10.0 mi NE 10.4 mph - N/A   Overcast
12:53 AM 64.9 °F 61.0 °F 87% 30.14 in 10.0 mi NE 8.1 mph - N/A   Overcast
1:44 AM 64.4 °F 60.8 °F 88% 30.14 in 10.0 mi NE 8.1 mph - N/A   Overcast
1:53 AM 64.9 °F 61.0 °F 87% 30.14 in 10.0 mi NE 8.1 mph - N/A   Overcast
2:53 AM 64.0 °F 60.1 °F 87% 30.13 in 10.0 mi NE 6.9 mph - N/A   Overcast
3:53 AM 64.9 °F 60.1 °F 84% 30.14 in 10.0 mi North 4.6 mph - N/A   Overcast
4:53 AM 64.0 °F 59.0 °F 84% 30.14 in 10.0 mi NNE 6.9 mph - N/A   Overcast
5:53 AM 63.0 °F 59.0 °F 87% 30.14 in 10.0 mi NNE 6.9 mph - N/A   Overcast
6:26 AM 62.6 °F 59.0 °F 88% 30.14 in 8.0 mi NNE 6.9 mph - N/A   Overcast
6:53 AM 63.0 °F 59.0 °F 87% 30.15 in 6.0 mi NE 8.1 mph - N/A   Overcast
7:53 AM 62.1 °F 59.0 °F 90% 30.17 in 6.0 mi NE 6.9 mph - N/A   Overcast
8:53 AM 62.1 °F 57.9 °F 86% 30.17 in 8.0 mi NE 9.2 mph - N/A   Overcast
9:53 AM 64.0 °F 59.0 °F 84% 30.17 in 10.0 mi NE 8.1 mph - N/A   Overcast
10:53 AM 66.0 °F 59.0 °F 78% 30.17 in 10.0 mi ENE 11.5 mph - N/A   Overcast
11:04 AM 66.2 °F 59.0 °F 78% 30.18 in 10.0 mi NE 6.9 mph - N/A   Overcast
11:53 AM 66.0 °F 59.0 °F 78% 30.17 in 10.0 mi North 9.2 mph - N/A   Overcast
12:53 PM 66.9 °F 59.0 °F 76% 30.14 in 10.0 mi North 11.5 mph - N/A   Overcast
1:22 PM 68.0 °F 57.2 °F 68% 30.13 in 10.0 mi NNE 11.5 mph - N/A   Overcast
1:53 PM 66.9 °F 59.0 °F 76% 30.12 in 10.0 mi North 10.4 mph - N/A   Overcast
2:53 PM 68.0 °F 59.0 °F 73% 30.11 in 10.0 mi North 8.1 mph - N/A   Overcast
3:53 PM 66.9 °F 57.9 °F 73% 30.11 in 10.0 mi NNE 6.9 mph - N/A   Overcast
4:22 PM 66.2 °F 57.2 °F 73% 30.10 in 10.0 mi NNE 6.9 mph - N/A   Scattered Clouds
4:53 PM 66.9 °F 57.9 °F 73% 30.10 in 10.0 mi NNE 5.8 mph - N/A   Clear
5:53 PM 63.0 °F 57.9 °F 84% 30.11 in 10.0 mi North 3.5 mph - N/A   Clear
6:53 PM 63.0 °F 57.9 °F 84% 30.12 in 9.0 mi North 4.6 mph - N/A   Clear
7:53 PM 63.0 °F 59.0 °F 87% 30.14 in 9.0 mi North 6.9 mph - N/A   Clear
8:53 PM 63.0 °F 57.9 °F 84% 30.13 in 10.0 mi NNE 8.1 mph - N/A   Clear
9:53 PM 61.0 °F 57.0 °F 87% 30.14 in 9.0 mi NNE 6.9 mph - N/A   Clear
10:53 PM 61.0 °F 57.0 °F 87% 30.14 in 9.0 mi NNE 5.8 mph - N/A   Clear
11:53 PM 60.1 °F 57.0 °F 90% 30.13 in 9.0 mi NNE 5.8 mph - N/A   Clear